Florence, OR

10:27 PM PST on November 27, 2014 (GMT -0800)
Mahlon Sweet | Change Station
CLOSE
Current Station
Airport
Location: Eugene,
Elevation: 374 ft
Nearby Weather Stations
Active Advisory: Special Statement Active Notice: Record Report

Elev 374 ft 44.12 °N, 123.21 °W | Updated 33 minutes ago

Overcast
Overcast
52 °F
Feels Like 52 °F
N
5
Wind Variable Wind from SSW

Today
High -- | Low -- °F
--% Chance of Precip.
Yesterday
High -- | Low -- °F
Precip. -- in
7:26 AM 4:41 PM
Waxing Crescent, 37% visible
Pressure 29.88 in
Visibility 10.0 miles
Clouds Overcast 4800 ft
Dew Point 50 °F
Humidity 93%
Rainfall 0.21 in
Snow Depth Not available.
UV 0 out of 12
Pollen .10 out of 12
Air Quality Not available.
Flu Activity Not available.
METAR KEUG 280554Z 21004KT 10SM OVC048 11/10 A2987 RMK AO2 RAB01E32 SLP116 P0000 60004 T01110100 10122 20106 58020

More Conditions Fewer Conditions

Pressure 29.88 in
Visibility 10.0 miles
Clouds Overcast 4800 ft
Dew Point 50 °F
Humidity 93%
Rainfall 0.21 in
Snow Depth Not available.
UV 0 out of 12
Pollen .10 out of 12
Air Quality Not available.
Flu Activity Not available.
METAR KEUG 280554Z 21004KT 10SM OVC048 11/10 A2987 RMK AO2 RAB01E32 SLP116 P0000 60004 T01110100 10122 20106 58020

More Conditions Fewer Conditions

10-Day Weather Forecast

Almanac

Astronomy

Nov. 27, 2014 Rise Set
Actual Time
Civil Twilight
Nautical Twilight
Astronomical Twilight
Moon
Length of Visible Light
Length of Day
Tomorrow will be .
, % of the Moon is Illuminated

Today's Extremes

State Highs State Lows

Community

WunderPhotos

Upload Photos

1,774,199 photos uploaded!

WunderBlogs® & News

Nearby

Air Quality

  Air Quality AQ Index Pollutant
Not available.

Snow Depth

Station Depth Elevation

Earthquake Activity

City Distance Mag. Time & Date
Minimum magnitude displayed is 2.5.

Coastal Water Temperatures

Place Temperature

Nearby Weather Stations